FW5810 Weather Reports


time (UTC)temp
F
wind
direction
speed
knots
gust
knots
rain 1hr
in
rain 24hr
in
rain mn
in
humidity
%
barometer
mb
20260504050502 50 195 2.6 3.5 0.00 0.00 0.00 58 1013.1
20260504045959 50 228 1.7 4.3 0.00 0.00 0.00 58 1013.1
20260504045455 50 180 1.7 2.6 0.00 0.00 0.00 58 1013.1
20260504044951 50 212 0.9 0.9 0.00 0.00 0.00 58 1013.0
20260504044448 50 144 2.6 3.5 0.00 0.00 0.00 58 1013.1
20260504043946 50 215 0.9 6.1 0.00 0.00 0.00 57 1013.1
20260504043442 50 189 2.6 3.5 0.00 0.00 0.00 57 1013.2
20260504042940 50 167 1.7 3.5 0.00 0.00 0.00 57 1013.3
20260504042436 50 216 4.3 4.3 0.00 0.00 0.00 56 1013.4
20260504041933 50 196 0.9 2.6 0.00 0.00 0.00 57 1013.3
20260504041429 50 191 0.9 2.6 0.00 0.00 0.00 56 1013.2
20260504040925 50 214 1.7 3.5 0.00 0.00 0.00 56 1013.4
20260504040424 51 200 0.9 0.9 0.00 0.00 0.00 56 1013.4
20260504035919 51 203 1.7 2.6 0.00 0.00 0.00 55 1013.4
20260504035417 51 222 2.6 2.6 0.00 0.00 0.00 55 1013.5
20260504034914 51 195 1.7 0.9 0.00 0.00 0.00 55 1013.4
20260504034412 51 213 0.9 0.9 0.00 0.00 0.00 56 1013.4
20260504033908 51 214 1.7 0.9 0.00 0.00 0.00 54 1013.5
20260504033406 51 226 1.7 3.5 0.00 0.00 0.00 54 1013.7
20260504032902 51 204 2.6 3.5 0.00 0.00 0.00 54 1013.7
20260504032359 51 178 0.9 0.9 0.00 0.00 0.00 54 1013.8
20260504031855 51 212 2.6 4.3 0.00 0.00 0.00 53 1013.7
20260504031353 51 221 2.6 3.5 0.00 0.00 0.00 54 1013.8
20260504030849 51 221 2.6 4.3 0.00 0.00 0.00 52 1013.9
20260504030347 51 289 0.0 0.0 0.00 0.00 0.00 53 1014.2
20260504025842 51 297 0.9 6.1 0.00 0.00 0.00 52 1014.1
20260504025340 51 213 1.7 3.5 0.00 0.00 0.00 52 1014.0
20260504024836 51 245 1.7 6.1 0.00 0.00 0.00 52 1014.0
20260504024333 50 310 2.6 6.1 0.00 0.00 0.00 51 1014.3
20260504023829 50 241 3.5 6.1 0.00 0.00 0.00 51 1014.1
20260504023327 50 179 1.7 3.5 0.00 0.00 0.00 51 1014.3
20260504022822 50 226 3.5 4.3 0.00 0.00 0.00 51 1014.1
20260504022319 49 223 2.6 3.5 0.00 0.00 0.00 52 1014.1
20260504021816 49 211 1.7 2.6 0.00 0.00 0.00 52 1013.8
20260504021314 49 189 0.9 0.9 0.00 0.00 0.00 51 1013.8
20260504020810 49 189 0.9 0.9 0.00 0.00 0.00 51 1013.7
20260504020307 50 188 0.9 0.9 0.00 0.00 0.00 51 1013.8
20260504015802 50 189 0.9 0.9 0.00 0.00 0.00 51 1013.7
20260504015259 50 189 0.9 0.9 0.00 0.00 0.00 49 1013.7
20260504014755 50 190 0.9 0.9 0.00 0.00 0.00 49 1013.5
20260504014251 51 187 0.0 0.9 0.00 0.00 0.00 48 1013.5
20260504013749 51 183 0.9 0.9 0.00 0.00 0.00 48 1013.4
20260504013247 51 183 1.7 0.9 0.00 0.00 0.00 48 1013.3
20260504012743 51 186 0.0 0.9 0.00 0.00 0.00 47 1013.3
20260504012241 52 198 0.9 0.9 0.00 0.00 0.00 46 1013.4
20260504011737 53 197 0.9 0.9 0.00 0.00 0.00 44 1013.5
20260504011235 52 253 0.9 2.6 0.00 0.00 0.00 45 1013.2
20260504010731 53 215 1.7 2.6 0.00 0.00 0.00 44 1013.4
20260504010226 53 161 0.9 0.9 0.00 0.00 0.00 43 1013.4
20260504005723 54 208 2.6 2.6 0.00 0.00 0.00 41 1013.4
20260504005220 54 213 2.6 4.3 0.00 0.00 0.00 41 1013.5
20260504004718 54 212 1.7 3.5 0.00 0.00 0.00 41 1013.4
20260504004215 54 210 1.7 2.6 0.00 0.00 0.00 40 1013.4
20260504003712 55 172 0.0 2.6 0.00 0.00 0.00 41 1013.3
20260504003208 55 223 3.5 4.3 0.00 0.00 0.00 39 1013.4
20260504002705 55 220 2.6 2.6 0.00 0.00 0.00 40 1013.4
20260504002202 55 244 0.9 3.5 0.00 0.00 0.00 40 1013.4
20260504001700 56 228 2.6 4.3 0.00 0.00 0.00 39 1013.4
20260504001156 56 255 2.6 4.3 0.00 0.00 0.00 38 1013.5
20260504000653 56 239 1.7 3.5 0.00 0.00 0.00 39 1013.3
20260504000150 57 224 3.5 9.6 0.00 0.00 0.00 37 1013.5
20260503235649 57 240 5.2 9.6 0.00 0.00 0.00 37 1013.4
20260503235145 57 190 7.8 9.6 0.00 0.00 0.00 37 1013.5
20260503234643 57 267 2.6 12.2 0.00 0.00 0.00 38 1013.4
20260503234141 57 187 2.6 7.0 0.00 0.00 0.00 37 1013.4
20260503233638 57 246 5.2 12.2 0.00 0.00 0.00 36 1013.7
20260503233133 57 221 2.6 3.5 0.00 0.00 0.00 37 1013.8
20260503232630 57 202 4.3 7.0 0.00 0.00 0.00 36 1013.7
20260503232128 57 332 2.6 8.7 0.00 0.00 0.00 36 1013.4
20260503231626 57 239 4.3 10.4 0.00 0.00 0.00 37 1013.5
20260503231122 57 236 2.6 3.5 0.00 0.00 0.00 36 1013.5
20260503230619 57 278 7.0 8.7 0.00 0.00 0.00 35 1013.5
20260503230116 57 219 3.5 6.1 0.00 0.00 0.00 37 1013.5
20260503225614 57 187 4.3 7.0 0.00 0.00 0.00 37 1013.5
20260503225113 57 224 4.3 13.9 0.00 0.00 0.00 36 1013.7
20260503224611 57 248 3.5 4.3 0.00 0.00 0.00 36 1013.8
20260503224109 58 272 2.6 3.5 0.00 0.00 0.00 37 1013.7
20260503223606 58 246 2.6 10.4 0.00 0.00 0.00 36 1013.9
20260503223102 58 257 3.5 8.7 0.00 0.00 0.00 35 1013.8
20260503222600 58 304 5.2 8.7 0.00 0.00 0.00 34 1013.8
20260503222058 58 234 5.2 9.6 0.00 0.00 0.00 34 1013.7
20260503221555 58 251 2.6 4.3 0.00 0.00 0.00 36 1013.8
20260503221053 58 177 2.6 13.0 0.00 0.00 0.00 34 1013.9
20260503220549 58 252 4.3 8.7 0.00 0.00 0.00 36 1014.0
20260503220046 58 239 5.2 9.6 0.00 0.00 0.00 36 1013.9
20260503215543 58 224 10.4 15.6 0.00 0.00 0.00 34 1013.8
20260503215040 59 244 4.3 15.6 0.00 0.00 0.00 35 1013.8
20260503214538 59 242 11.3 16.5 0.00 0.00 0.00 34 1014.0
20260503214034 59 291 4.3 9.6 0.00 0.00 0.00 34 1013.9
20260503213533 59 284 2.6 3.5 0.00 0.00 0.00 34 1013.8
20260503213029 59 290 7.0 13.0 0.00 0.00 0.00 35 1013.9
20260503212527 59 224 4.3 13.0 0.00 0.00 0.00 35 1013.8
20260503212024 59 260 5.2 10.4 0.00 0.00 0.00 34 1013.9
20260503211521 58 231 5.2 10.4 0.00 0.00 0.00 35 1014.0
20260503211016 59 262 2.6 13.9 0.00 0.00 0.00 36 1013.9
20260503210514 60 268 5.2 12.2 0.00 0.00 0.00 33 1013.8
20260503210009 60 266 8.7 12.2 0.00 0.00 0.00 33 1013.8
20260503205506 59 239 2.6 13.9 0.00 0.00 0.00 33 1013.5
20260503205002 59 287 7.8 15.6 0.00 0.00 0.00 33 1013.8
20260503204459 59 264 3.5 12.2 0.00 0.00 0.00 35 1013.9
20260503203956 59 280 2.6 12.2 0.00 0.00 0.00 35 1013.9
20260503203454 59 240 3.5 13.9 0.00 0.00 0.00 35 1014.1
20260503202950 59 216 9.6 13.0 0.00 0.00 0.00 34 1014.2
20260503202448 59 242 7.8 15.6 0.00 0.00 0.00 32 1014.2
20260503201947 60 241 6.1 9.6 0.00 0.00 0.00 33 1014.1
20260503201444 59 269 7.0 10.4 0.00 0.00 0.00 33 1014.3
20260503200941 58 261 7.8 10.4 0.00 0.00 0.00 33 1014.1
20260503200438 58 290 2.6 8.7 0.00 0.00 0.00 34 1014.3
20260503195934 59 278 3.5 13.9 0.00 0.00 0.00 36 1014.4
20260503195432 59 273 4.3 12.2 0.00 0.00 0.00 35 1014.6
20260503194928 59 273 4.3 12.2 0.00 0.00 0.00 35 1014.6
20260503194425 61 290 5.2 13.0 0.00 0.00 0.00 33 1014.6
20260503193920 59 215 7.8 8.7 0.00 0.00 0.00 33 1014.5
20260503193416 60 278 2.6 8.7 0.00 0.00 0.00 34 1014.6
20260503192912 59 270 5.2 8.7 0.00 0.00 0.00 34 1014.8
20260503192409 59 270 5.2 8.7 0.00 0.00 0.00 34 1014.8
20260503191904 59 262 4.3 8.7 0.00 0.00 0.00 36 1014.9
20260503191402 58 159 5.2 7.0 0.00 0.00 0.00 34 1015.0
20260503190858 59 288 4.3 15.6 0.00 0.00 0.00 34 1015.2
20260503190356 59 288 4.3 15.6 0.00 0.00 0.00 34 1015.2
20260503185852 60 234 13.0 15.6 0.00 0.00 0.00 31 1015.2
20260503185349 59 250 2.6 7.0 0.00 0.00 0.00 33 1015.2
20260503184848 59 266 5.2 15.6 0.00 0.00 0.00 35 1015.4
20260503184345 59 266 5.2 15.6 0.00 0.00 0.00 35 1015.4
20260503183840 59 253 3.5 10.4 0.00 0.00 0.00 37 1015.4
20260503183338 59 325 5.2 9.6 0.00 0.00 0.00 34 1015.5
20260503182835 59 290 5.2 8.7 0.00 0.00 0.00 31 1015.4
20260503182334 58 263 2.6 7.0 0.00 0.00 0.00 35 1015.6
20260503181831 59 248 6.1 13.9 0.00 0.00 0.00 35 1015.5
20260503181328 59 248 6.1 13.9 0.00 0.00 0.00 35 1015.5
20260503180824 59 250 2.6 8.7 0.00 0.00 0.00 34 1015.5
20260503180323 59 240 9.6 13.9 0.00 0.00 0.00 32 1015.6
20260503175818 59 240 9.6 13.9 0.00 0.00 0.00 32 1015.6
20260503175317 57 257 2.6 6.1 0.00 0.00 0.00 36 1015.8
20260503174812 58 331 13.0 18.2 0.00 0.00 0.00 34 1015.8
20260503174311 57 237 7.0 9.6 0.00 0.00 0.00 34 1016.0
20260503173806 57 210 6.1 13.9 0.00 0.00 0.00 37 1015.8
20260503173302 57 187 3.5 13.0 0.00 0.00 0.00 36 1015.9
20260503172759 58 282 7.8 13.0 0.00 0.00 0.00 35 1015.9
20260503172256 57 315 3.5 16.5 0.00 0.00 0.00 39 1016.1
20260503171752 57 317 7.8 15.6 0.00 0.00 0.00 37 1016.3
20260503171249 57 107 1.7 9.6 0.00 0.00 0.00 42 1016.3
20260503170746 57 232 6.1 8.7 0.00 0.00 0.00 38 1016.5
20260503170243 56 206 2.6 10.4 0.00 0.00 0.00 44 1016.6
20260503160205 53 232 6.1 10.4 0.00 0.00 0.00 39 1017.1
20260503150635 51 202 3.5 6.1 0.00 0.00 0.00 41 1017.6
20260503150131 51 202 3.5 6.1 0.00 0.00 0.00 41 1017.6
20260503131025 46 278 2.6 4.3 0.00 0.00 0.00 49 1018.0
20260503130522 46 278 2.6 4.3 0.00 0.00 0.00 49 1018.0
20260503110413 35 222 0.9 0.9 0.00 0.00 0.00 84 1017.4
20260503090304 34 287 0.0 0.9 0.00 0.00 0.00 89 1017.2
20260503081231 34 298 0.9 0.9 0.00 0.00 0.00 89 1017.2
20260503080726 34 298 0.0 0.9 0.00 0.00 0.00 88 1017.1
20260503080224 34 298 0.0 0.0 0.00 0.00 0.00 88 1017.2
20260503072701 33 298 0.0 0.9 0.00 0.00 0.00 91 1017.1
20260503072157 33 298 0.9 0.9 0.00 0.00 0.00 91 1017.1
20260503071654 33 298 0.0 0.0 0.00 0.00 0.00 91 1017.2
20260503071151 33 298 0.0 0.0 0.00 0.00 0.00 91 1017.0
20260503070648 33 298 0.0 0.9 0.00 0.00 0.00 91 1017.1
20260503070146 33 298 0.0 0.0 0.00 0.00 0.00 92 1017.1